SA7BGG-5 Weather Reports


time (UTC)temp
C
wind
direction
speed
KPH
gust
KPH
rain 1hr
cm
rain 24hr
cm
rain mn
cm
humidity
%
barometer
mb
20260505174000 13 210 0.0 0.0 0.00 0.00 0.00 38 1014.0
20260505173500 13 210 0.0 0.0 0.00 0.00 0.00 38 1014.0
20260505172505 14 210 0.0 0.0 0.00 0.00 0.00 38 1014.0
20260505172004 14 210 0.0 0.0 0.00 0.00 0.00 38 1014.0
20260505171504 14 210 0.0 0.0 0.00 0.00 0.00 39 1014.0
20260505171004 14 210 0.0 0.0 0.00 0.00 0.00 39 1014.0
20260505170503 15 219 0.0 0.0 0.00 0.00 0.00 38 1014.0
20260505170003 15 219 0.0 0.0 0.00 0.00 0.00 38 1014.0
20260505165502 15 219 0.0 0.0 0.00 0.00 0.00 41 1014.0
20260505165002 15 219 0.0 0.0 0.00 0.00 0.00 41 1014.0
20260505164502 15 218 0.0 0.0 0.00 0.00 0.00 41 1013.0
20260505164001 15 218 0.0 0.0 0.00 0.00 0.00 41 1013.0
20260505163501 15 218 0.0 0.0 0.00 0.00 0.00 40 1014.0
20260505163001 15 218 0.0 0.0 0.00 0.00 0.00 40 1014.0
20260505162501 15 218 0.0 0.0 0.00 0.00 0.00 38 1014.0
20260505162000 15 218 0.0 0.0 0.00 0.00 0.00 38 1014.0
20260505161004 16 199 0.0 0.0 0.00 0.00 0.00 35 1014.0
20260505160504 16 203 0.0 0.0 0.00 0.00 0.00 34 1014.0
20260505153002 16 199 0.0 0.0 0.00 0.00 0.00 29 1014.0
20260505152501 16 199 0.0 0.0 0.00 0.00 0.00 28 1014.0
20260505152001 16 199 0.0 0.0 0.00 0.00 0.00 28 1014.0
20260505151501 16 183 0.0 0.0 0.00 0.00 0.00 28 1014.0
20260505151001 16 183 0.0 0.0 0.00 0.00 0.00 28 1014.0
20260505150500 17 192 0.0 0.0 0.00 0.00 0.00 28 1014.0
20260505140501 17 191 0.0 0.0 0.00 0.00 0.00 32 1014.0
20260505125000 17 222 0.0 0.0 0.00 0.00 0.00 38 1014.0
20260505124500 17 225 0.0 0.0 0.00 0.00 0.00 39 1014.0
20260505124005 17 225 0.0 0.0 0.00 0.00 0.00 39 1014.0
20260505123504 16 225 0.0 0.0 0.00 0.00 0.00 39 1014.0
20260505123004 16 225 0.0 0.0 0.00 0.00 0.00 39 1014.0
20260505122504 16 225 0.0 0.0 0.00 0.00 0.00 41 1014.0
20260505122003 16 225 0.0 0.0 0.00 0.00 0.00 41 1014.0
20260505121503 16 215 0.0 0.0 0.00 0.00 0.00 43 1014.0
20260505121003 16 215 0.0 0.0 0.00 0.00 0.00 43 1014.0
20260505120502 16 224 0.0 0.0 0.00 0.00 0.00 43 1014.0
20260505120002 16 224 0.0 0.0 0.00 0.00 0.00 43 1014.0
20260505115501 16 223 0.0 0.0 0.00 0.00 0.00 46 1014.0
20260505115001 16 223 0.0 0.0 0.00 0.00 0.00 46 1014.0
20260505114501 16 199 0.0 0.0 0.00 0.00 0.00 50 1014.0
20260505114000 16 199 0.0 0.0 0.00 0.00 0.00 50 1014.0
20260505113500 16 220 0.0 0.0 0.00 0.00 0.00 49 1014.0
20260505113005 16 220 0.0 0.0 0.00 0.00 0.00 49 1014.0
20260505112504 16 218 0.0 0.0 0.00 0.00 0.00 47 1014.0
20260505112004 16 218 0.0 0.0 0.00 0.00 0.00 47 1014.0
20260505111504 16 219 0.0 0.0 0.00 0.00 0.00 49 1014.0
20260505111003 16 219 0.0 0.0 0.00 0.00 0.00 49 1014.0
20260505110503 16 219 0.0 0.0 0.00 0.00 0.00 51 1014.0
20260505102004 15 219 0.0 0.0 0.00 0.00 0.00 52 1015.0
20260505101504 15 206 0.0 0.0 0.00 0.00 0.00 56 1015.0
20260505101004 15 206 0.0 0.0 0.00 0.00 0.00 56 1015.0
20260505100503 15 206 0.0 0.0 0.00 0.00 0.00 55 1015.0
20260505100003 15 206 0.0 0.0 0.00 0.00 0.00 55 1015.0
20260505095502 15 206 0.0 0.0 0.00 0.00 0.00 54 1015.0
20260505095002 15 206 0.0 0.0 0.00 0.00 0.00 54 1015.0
20260505094501 15 218 0.0 0.0 0.00 0.00 0.00 55 1015.0
20260505094001 15 218 0.0 0.0 0.00 0.00 0.00 55 1015.0
20260505093501 15 111 0.0 0.0 0.00 0.00 0.00 55 1015.0
20260505093000 15 111 0.0 0.0 0.00 0.00 0.00 55 1015.0
20260505092505 14 164 0.0 0.0 0.00 0.00 0.00 59 1015.0
20260505092005 14 164 0.0 0.0 0.00 0.00 0.00 59 1015.0
20260505091504 14 212 0.0 0.0 0.00 0.00 0.00 57 1015.0
20260505091004 14 212 0.0 0.0 0.00 0.00 0.00 57 1015.0
20260505090503 14 201 0.0 0.0 0.00 0.00 0.00 58 1015.0
20260505090003 14 201 0.0 0.0 0.00 0.00 0.00 58 1015.0
20260505085503 13 201 0.0 0.0 0.00 0.00 0.00 60 1015.0
20260505085002 13 201 0.0 0.0 0.00 0.00 0.00 60 1015.0
20260505084502 13 201 0.0 0.0 0.00 0.00 0.00 60 1015.0
20260505084002 13 201 0.0 0.0 0.00 0.00 0.00 60 1015.0
20260505083501 13 173 0.0 0.0 0.00 0.00 0.00 61 1015.0
20260505083001 13 173 0.0 0.0 0.00 0.00 0.00 61 1015.0
20260505082501 13 58 0.0 0.0 0.00 0.00 0.00 62 1015.0
20260505082000 13 58 0.0 0.0 0.00 0.00 0.00 62 1015.0
20260505081500 12 58 0.0 0.0 0.00 0.00 0.00 63 1015.0
20260505081005 12 58 0.0 0.0 0.00 0.00 0.00 63 1015.0
20260505080504 12 58 0.0 0.0 0.00 0.00 0.00 65 1015.0
20260505080004 12 58 0.0 0.0 0.00 0.00 0.00 65 1015.0
20260505075504 12 55 0.0 0.0 0.00 0.00 0.00 66 1015.0
20260505075003 12 55 0.0 0.0 0.00 0.00 0.00 66 1015.0
20260505074503 11 51 0.0 0.0 0.00 0.00 0.00 69 1015.0
20260505074002 11 51 0.0 0.0 0.00 0.00 0.00 69 1015.0
20260505073502 11 68 0.0 0.0 0.00 0.00 0.00 70 1015.0
20260505073002 11 68 0.0 0.0 0.00 0.00 0.00 70 1015.0
20260505072501 11 68 0.0 0.0 0.00 0.00 0.00 72 1015.0
20260505072001 11 68 0.0 0.0 0.00 0.00 0.00 72 1015.0
20260505071501 10 68 0.0 0.0 0.00 0.00 0.00 74 1015.0
20260505071000 10 68 0.0 0.0 0.00 0.00 0.00 74 1015.0
20260505070505 10 90 0.0 0.0 0.00 0.00 0.00 75 1015.0
20260505070005 10 90 0.0 0.0 0.00 0.00 0.00 75 1015.0
20260505065504 9 90 0.0 0.0 0.00 0.00 0.00 76 1015.0
20260505065003 9 90 0.0 0.0 0.00 0.00 0.00 76 1015.0
20260505064503 9 90 0.0 0.0 0.00 0.00 0.00 78 1015.0
20260505064003 9 90 0.0 0.0 0.00 0.00 0.00 78 1015.0
20260505063503 9 102 0.0 0.0 0.00 0.00 0.00 80 1015.0
20260505063002 9 102 0.0 0.0 0.00 0.00 0.00 80 1015.0
20260505062502 8 98 0.0 0.0 0.00 0.00 0.00 83 1015.0
20260505062001 8 98 0.0 0.0 0.00 0.00 0.00 83 1015.0
20260505061501 8 98 0.0 0.0 0.00 0.00 0.00 86 1015.0
20260505061001 8 98 0.0 0.0 0.00 0.00 0.00 86 1015.0
20260505060500 8 110 0.0 0.0 0.00 0.00 0.00 87 1015.0
20260505055504 7 106 0.0 0.0 0.00 0.00 0.00 88 1015.0
20260505055004 7 106 0.0 0.0 0.00 0.00 0.00 88 1015.0
20260505054504 7 106 0.0 0.0 0.00 0.00 0.00 89 1015.0
20260505054003 7 106 0.0 0.0 0.00 0.00 0.00 89 1015.0
20260505053503 7 120 0.0 0.0 0.00 0.00 0.00 89 1015.0
20260505053003 7 120 0.0 0.0 0.00 0.00 0.00 89 1015.0
20260505052502 6 120 0.0 0.0 0.00 0.00 0.00 90 1015.0
20260505052002 6 120 0.0 0.0 0.00 0.00 0.00 90 1015.0
20260505051501 6 120 0.0 0.0 0.00 0.00 0.00 90 1015.0
20260505051001 6 120 0.0 0.0 0.00 0.00 0.00 90 1015.0
20260505050501 6 135 0.0 0.0 0.00 0.00 0.00 90 1015.0
20260505041501 5 150 0.0 0.0 0.00 0.00 0.00 89 1015.0
20260505041001 5 150 0.0 0.0 0.00 0.00 0.00 89 1015.0
20260505040501 5 50 0.0 0.0 0.00 0.00 0.00 88 1015.0
20260505040000 5 50 0.0 0.0 0.00 0.00 0.00 88 1015.0
20260505035505 5 149 0.0 0.0 0.00 0.00 0.00 89 1015.0
20260505035004 5 149 0.0 0.0 0.00 0.00 0.00 89 1015.0
20260505034504 5 149 0.0 0.0 0.00 0.00 0.00 89 1015.0
20260505034004 5 149 0.0 0.0 0.00 0.00 0.00 89 1015.0
20260505033504 5 133 0.0 0.0 0.00 0.00 0.00 89 1015.0
20260505033003 5 133 0.0 0.0 0.00 0.00 0.00 89 1015.0
20260505032503 5 132 0.0 0.0 0.00 0.00 0.00 90 1015.0
20260505032002 5 132 0.0 0.0 0.00 0.00 0.00 90 1015.0
20260505031502 5 127 0.0 0.0 0.00 0.00 0.00 90 1015.0
20260505031002 5 127 0.0 0.0 0.00 0.00 0.00 90 1015.0
20260505030501 5 127 0.0 0.0 0.00 0.00 0.00 90 1015.0
20260505030001 5 127 0.0 0.0 0.00 0.00 0.00 90 1015.0
20260505025501 5 222 0.0 0.0 0.00 0.00 0.00 90 1015.0
20260505025000 5 222 0.0 0.0 0.00 0.00 0.00 90 1015.0
20260505024505 5 222 0.0 0.0 0.00 0.00 0.00 90 1015.0
20260505024004 5 222 0.0 0.0 0.00 0.00 0.00 90 1015.0
20260505023504 5 216 0.0 0.0 0.00 0.00 0.00 89 1015.0
20260505023004 5 216 0.0 0.0 0.00 0.00 0.00 89 1015.0
20260505022503 5 216 0.0 0.0 0.00 0.00 0.00 89 1015.0
20260505022003 5 216 0.0 0.0 0.00 0.00 0.00 89 1015.0
20260505021503 5 213 0.0 0.0 0.00 0.00 0.00 89 1015.0
20260505021002 5 213 0.0 0.0 0.00 0.00 0.00 89 1015.0
20260505020502 5 168 0.0 0.0 0.00 0.00 0.00 88 1015.0
20260505020002 5 168 0.0 0.0 0.00 0.00 0.00 88 1015.0
20260505015501 5 168 0.0 0.0 0.00 0.00 0.00 87 1015.0
20260505015001 5 168 0.0 0.0 0.00 0.00 0.00 87 1015.0
20260505014501 5 151 0.0 0.0 0.00 0.00 0.00 87 1015.0
20260505014001 5 151 0.0 0.0 0.00 0.00 0.00 87 1015.0
20260505013005 5 151 0.0 0.0 0.00 0.00 0.00 87 1015.0
20260505012504 5 151 0.0 0.0 0.00 0.00 0.00 87 1015.0
20260505012004 5 151 0.0 0.0 0.00 0.00 0.00 87 1015.0
20260505011504 5 195 0.0 0.0 0.00 0.00 0.00 86 1015.0
20260505011003 5 195 0.0 0.0 0.00 0.00 0.00 86 1015.0
20260505010503 5 195 0.0 0.0 0.00 0.00 0.00 85 1015.0
20260505010002 5 195 0.0 0.0 0.00 0.00 0.00 85 1015.0
20260505005502 5 194 0.0 0.0 0.00 0.00 0.00 85 1015.0
20260505005002 5 194 0.0 0.0 0.00 0.00 0.00 85 1015.0
20260505004501 5 194 0.0 0.0 0.00 0.00 0.00 84 1015.0
20260505004001 5 194 0.0 0.0 0.00 0.00 0.00 84 1015.0
20260505003501 5 206 0.0 0.0 0.00 0.00 0.00 83 1015.0
20260505003000 5 206 0.0 0.0 0.00 0.00 0.00 83 1015.0
20260505002505 5 149 0.0 0.0 0.00 0.00 0.00 83 1015.0
20260505002004 5 149 0.0 0.0 0.00 0.00 0.00 83 1015.0
20260505001504 5 149 0.0 0.0 0.00 0.00 0.00 82 1015.0
20260505001004 5 149 0.0 0.0 0.00 0.00 0.00 82 1015.0
20260505000503 5 178 0.0 0.0 0.00 0.00 0.00 82 1015.0
20260505000003 5 178 0.0 0.0 0.00 0.00 0.00 82 1015.0
20260504235502 5 165 0.0 0.0 0.00 0.00 0.00 82 1015.0
20260504235002 5 165 0.0 0.0 0.00 0.00 0.00 82 1015.0
20260504234502 6 210 0.0 0.0 0.00 0.00 0.00 81 1015.0
20260504234001 6 210 0.0 0.0 0.00 0.00 0.00 81 1015.0
20260504233501 6 210 0.0 0.0 0.00 0.00 0.00 82 1015.0
20260504233001 6 210 0.0 0.0 0.00 0.00 0.00 82 1015.0
20260504232501 6 210 0.0 0.0 0.00 0.00 0.00 81 1015.0
20260504232000 6 210 0.0 0.0 0.00 0.00 0.00 81 1015.0
20260504231505 6 210 0.0 0.0 0.00 0.00 0.00 80 1015.0
20260504231004 6 210 0.0 0.0 0.00 0.00 0.00 80 1015.0
20260504230504 6 210 0.0 0.0 0.00 0.00 0.00 80 1015.0
20260504230004 6 210 0.0 0.0 0.00 0.00 0.00 80 1015.0
20260504225503 7 210 0.0 0.0 0.00 0.00 0.00 81 1015.0
20260504225003 7 210 0.0 0.0 0.00 0.00 0.00 81 1015.0
20260504224503 7 210 0.0 0.0 0.00 0.00 0.00 80 1015.0
20260504224003 7 210 0.0 0.0 0.00 0.00 0.00 80 1015.0
20260504223502 7 193 0.0 0.0 0.00 0.00 0.00 79 1015.0
20260504223002 7 193 0.0 0.0 0.00 0.00 0.00 79 1015.0
20260504222501 7 193 0.0 0.0 0.00 0.00 0.00 79 1015.0
20260504222001 7 193 0.0 0.0 0.00 0.00 0.00 79 1015.0
20260504221501 7 193 0.0 0.0 0.00 0.00 0.00 78 1015.0
20260504221000 7 193 0.0 0.0 0.00 0.00 0.00 78 1015.0
20260504220505 7 201 0.0 0.0 0.00 0.00 0.00 77 1015.0
20260504220004 7 201 0.0 0.0 0.00 0.00 0.00 77 1015.0
20260504215504 7 212 0.0 0.0 0.00 0.00 0.00 78 1015.0
20260504215004 7 212 0.0 0.0 0.00 0.00 0.00 78 1015.0
20260504214503 7 212 0.0 0.0 0.00 0.00 0.00 77 1016.0
20260504214003 7 212 0.0 0.0 0.00 0.00 0.00 77 1016.0
20260504213502 7 208 0.0 0.0 0.00 0.00 0.00 75 1016.0
20260504213002 7 208 0.0 0.0 0.00 0.00 0.00 75 1016.0
20260504212502 8 208 0.0 0.0 0.00 0.00 0.00 74 1015.0
20260504212001 8 208 0.0 0.0 0.00 0.00 0.00 74 1015.0
20260504211501 8 208 0.0 0.0 0.00 0.00 0.00 74 1015.0
20260504211001 8 208 0.0 0.0 0.00 0.00 0.00 74 1015.0
20260504210501 8 208 0.0 0.0 0.00 0.00 0.00 72 1015.0
20260504210000 8 208 0.0 0.0 0.00 0.00 0.00 72 1015.0
20260504205500 8 208 0.0 0.0 0.00 0.00 0.00 71 1015.0
20260504205004 8 208 0.0 0.0 0.00 0.00 0.00 71 1015.0
20260504204504 8 208 0.0 0.0 0.00 0.00 0.00 70 1015.0
20260504204004 8 208 0.0 0.0 0.00 0.00 0.00 70 1015.0
20260504203503 9 208 0.0 0.0 0.00 0.00 0.00 70 1015.0
20260504203003 9 208 0.0 0.0 0.00 0.00 0.00 70 1015.0
20260504202503 9 208 0.0 0.0 0.00 0.00 0.00 67 1015.0
20260504202002 9 208 0.0 0.0 0.00 0.00 0.00 67 1015.0
20260504201502 10 198 0.0 0.0 0.00 0.00 0.00 66 1015.0
20260504201002 10 198 0.0 0.0 0.00 0.00 0.00 66 1015.0
20260504200501 10 198 0.0 0.0 0.00 0.00 0.00 65 1015.0
20260504200001 10 198 0.0 0.0 0.00 0.00 0.00 65 1015.0
20260504195501 10 198 0.0 0.0 0.00 0.00 0.00 65 1015.0
20260504195000 10 198 0.0 0.0 0.00 0.00 0.00 65 1015.0
20260504194500 11 194 0.0 0.0 0.00 0.00 0.00 64 1015.0
20260504194005 11 194 0.0 0.0 0.00 0.00 0.00 64 1015.0
20260504193504 11 194 0.0 0.0 0.00 0.00 0.00 63 1015.0
20260504193004 11 194 0.0 0.0 0.00 0.00 0.00 63 1015.0
20260504192503 11 183 0.0 0.0 0.00 0.00 0.00 62 1015.0
20260504192003 11 183 0.0 0.0 0.00 0.00 0.00 62 1015.0
20260504191503 12 183 0.0 0.0 0.00 0.00 0.00 61 1015.0
20260504191002 12 183 0.0 0.0 0.00 0.00 0.00 61 1015.0
20260504190502 12 183 0.0 0.0 0.00 0.00 0.00 60 1015.0
20260504190002 12 183 0.0 0.0 0.00 0.00 0.00 60 1015.0
20260504185501 12 184 0.0 0.0 0.00 0.00 0.00 59 1015.0
20260504185001 12 184 0.0 0.0 0.00 0.00 0.00 59 1015.0
20260504184500 13 192 0.0 0.0 0.00 0.00 0.00 58 1015.0
20260504184000 13 192 0.0 0.0 0.00 0.00 0.00 58 1015.0
20260504183505 13 194 0.0 0.0 0.00 0.00 0.00 57 1015.0
20260504183004 13 194 0.0 0.0 0.00 0.00 0.00 57 1015.0
20260504182504 13 205 0.0 0.0 0.00 0.00 0.00 56 1014.0
20260504182004 13 205 0.0 0.0 0.00 0.00 0.00 56 1014.0
20260504181503 13 205 0.0 0.0 0.00 0.00 0.00 54 1014.0
20260504181003 13 205 0.0 0.0 0.00 0.00 0.00 54 1014.0
20260504180503 14 205 0.0 0.0 0.00 0.00 0.00 52 1014.0
20260504180002 14 205 0.0 0.0 0.00 0.00 0.00 52 1014.0
20260504175502 14 205 0.0 0.0 0.00 0.00 0.00 51 1014.0
20260504175002 14 205 0.0 0.0 0.00 0.00 0.00 51 1014.0
20260504174501 14 211 0.0 0.0 0.00 0.00 0.00 48 1014.0